Zurück zum Katalog

FLOCK 4BE 31

AktivWissenschaftSSO
NORAD 60488·PAYLOAD·🇺🇸 United States

Gestartet Aug 16, 2024 von Vandenberg Space Force Base

Loading…

Nächste Überflüge (nächste 24 Stunden)

TLE

AktuellSource: CelesTrak SupGP

Epoche: Sep 14, 2026, 16:45 UTC

1 60488C 24149AR  26257.69804398  .00049855  00000+0  96129-3 0  2572
2 60488  97.3751 344.5098 0001306 312.3586 172.1800 15.47830150    15

Verfolge FLOCK 4BE 31 in Echtzeit mit AllMySat

Download on the App Store